Weather History for KEGV - January, 2013

Change the Weather History Date:

Wednesday, January 16, 2013

  Actual Average (KRHI) Record (KRHI)
Temperature  
Mean Temperature 19 °F 12 °F  
Max Temperature 26 °F 21 °F 46 °F (1973)
Min Temperature 10 °F 3 °F -40 °F (1982)
Degree Days  
Heating Degree Days 46 53  
Month to date heating degree days 843  
Since 1 July heating degree days 4469  
Cooling Degree Days 0 0  
Month to date cooling degree days 0  
Year to date cooling degree days 0  
Moisture  
Dew Point 15 °F    
Average Humidity 75    
Maximum Humidity 100    
Minimum Humidity 58    
Precipitation  
Precipitation 0.00 in 0.04 in 0.54 in (1935)
Month to date precipitation 0.59  
Year to date precipitation 0.59  
Snow  
Snow 0.00 in - 7.00 in (1967)
Month to date snowfall  
Since 1 July snowfall  
Snow Depth -    
Sea Level Pressure  
Sea Level Pressure 29.70 in    
Wind  
Wind Speed 12 mph (West)    
Max Wind Speed 21 mph    
Max Gust Speed 25 mph    
Visibility 8 miles    
Events Snow    
T = Trace of Precipitation, MM = Missing Value Source: NWS Daily Summary

Daily Weather History Graph

Daily Weather History Graph

Search for Another Location

Airport or City:

Trip Planner

Search our weather history database for the weather conditions in past years. The results will help you decide how hot, cold, wet, or windy it might be!

Date:

Astronomy

Jan. 16, 2013 Rise Set
Actual Time 7:33 AM CST 4:40 PM CST
Civil Twilight 7:00 AM CST 5:13 PM CST
Nautical Twilight 6:23 AM CST 5:50 PM CST
Astronomical Twilight 5:48 AM CST 6:26 PM CST
Moon 9:50 AM CST (1/16) 10:54 PM CST (1/16)
Length of Visible Light 10h 13m
Length of Day
9h 06m
Waxing Crescent, 28% of the Moon is Illuminated
Jan 16
Waxing Crescent
Jan 18
First Quarter
Jan 26
Full
Feb 3
Last Quarter
Feb 10
New

Hourly Weather History & Observations

Time (CST) Temp. Windchill Dew Point Humidity Pressure Visibility Wind Dir Wind Speed Gust Speed Precip Events Conditions
12:15 AM 23.0 °F 11.1 °F 12.2 °F 63% 29.77 in 10.0 mi SW 12.7 mph 20.7 mph N/A   Scattered Clouds
12:35 AM 23.0 °F 9.6 °F 12.2 °F 63% 29.76 in 10.0 mi SW 16.1 mph 19.6 mph N/A   Scattered Clouds
12:55 AM 21.2 °F 9.5 °F 12.2 °F 68% 29.75 in 10.0 mi SW 11.5 mph 21.9 mph N/A   Scattered Clouds
1:15 AM 21.2 °F 10.1 °F 12.2 °F 68% 29.73 in 10.0 mi SSW 10.4 mph 24.2 mph N/A   Scattered Clouds
1:35 AM 21.2 °F 8.3 °F 12.2 °F 68% 29.72 in 10.0 mi SW 13.8 mph 19.6 mph N/A   Scattered Clouds
1:55 AM 21.2 °F 9.5 °F 12.2 °F 68% 29.71 in 10.0 mi SW 11.5 mph 17.3 mph N/A   Scattered Clouds
2:15 AM 21.2 °F 9.5 °F 12.2 °F 68% 29.70 in 10.0 mi SW 11.5 mph 17.3 mph N/A   Scattered Clouds
2:35 AM 21.2 °F 11.7 °F 12.2 °F 68% 29.68 in 10.0 mi SSW 8.1 mph - N/A   Scattered Clouds
2:55 AM 21.2 °F 10.1 °F 12.2 °F 68% 29.65 in 10.0 mi SSW 10.4 mph 17.3 mph N/A   Scattered Clouds
3:15 AM 19.4 °F 7.9 °F 12.2 °F 74% 29.64 in 10.0 mi SSW 10.4 mph 20.7 mph N/A   Scattered Clouds
4:15 AM 21.2 °F 10.1 °F 12.2 °F 68% 29.57 in 10.0 mi SW 10.4 mph 18.4 mph N/A   Overcast
4:35 AM 21.2 °F 8.9 °F 12.2 °F 68% 29.57 in 10.0 mi SSW 12.7 mph 21.9 mph N/A   Overcast
4:55 AM 21.2 °F 10.1 °F 12.2 °F 68% 29.54 in 10.0 mi SW 10.4 mph 18.4 mph N/A   Overcast
5:35 AM 21.2 °F 8.9 °F 14.0 °F 74% 29.53 in 4.0 mi SW 12.7 mph 16.1 mph N/A Snow Light Snow
5:55 AM 21.2 °F 8.3 °F 15.8 °F 80% 29.51 in 1.8 mi SW 13.8 mph 20.7 mph N/A Snow Light Snow
6:15 AM 21.2 °F 8.9 °F 17.6 °F 86% 29.50 in 2.5 mi SW 12.7 mph 20.7 mph N/A Snow Light Snow
6:35 AM 21.2 °F 9.5 °F 17.6 °F 86% 29.51 in 2.0 mi SW 11.5 mph 23.0 mph N/A Snow Light Snow
6:55 AM 21.2 °F 8.9 °F 17.6 °F 86% 29.52 in 2.0 mi SW 12.7 mph 25.3 mph N/A Snow Light Snow
7:15 AM 21.2 °F 8.9 °F 17.6 °F 86% 29.53 in 2.5 mi WSW 12.7 mph 21.9 mph N/A Snow Light Snow
7:35 AM 21.2 °F 7.8 °F 17.6 °F 86% 29.53 in 1.5 mi SW 15.0 mph 19.6 mph N/A Snow Light Snow
7:55 AM 21.2 °F 9.5 °F 17.6 °F 86% 29.53 in 1.8 mi SW 11.5 mph 17.3 mph N/A Snow Light Snow
8:15 AM 21.2 °F 9.5 °F 17.6 °F 86% 29.53 in 7.0 mi WSW 11.5 mph - N/A   Overcast
8:35 AM 23.0 °F 12.4 °F 17.6 °F 80% 29.53 in 10.0 mi SW 10.4 mph - N/A   Overcast
8:55 AM 23.0 °F 10.6 °F 19.4 °F 86% 29.54 in 10.0 mi WSW 13.8 mph 19.6 mph N/A   Overcast
9:15 AM 23.0 °F 12.4 °F 19.4 °F 86% 29.55 in 10.0 mi West 10.4 mph 13.8 mph N/A   Overcast
9:35 AM 23.0 °F 10.6 °F 19.4 °F 86% 29.55 in 10.0 mi WSW 13.8 mph 18.4 mph N/A   Overcast
9:55 AM 24.8 °F 13.4 °F 19.4 °F 80% 29.55 in 10.0 mi West 12.7 mph 18.4 mph N/A   Overcast
10:15 AM 24.8 °F 14.6 °F 19.4 °F 80% 29.56 in 10.0 mi West 10.4 mph 18.4 mph N/A   Overcast
10:35 AM 24.8 °F 14.6 °F 21.2 °F 86% 29.56 in 7.0 mi West 10.4 mph 16.1 mph N/A   Overcast
10:55 AM 24.8 °F 15.3 °F 21.2 °F 86% 29.56 in 4.0 mi West 9.2 mph 18.4 mph N/A   Overcast
11:15 AM 24.8 °F 13.4 °F 24.8 °F 100% 29.57 in 3.0 mi West 12.7 mph 17.3 mph N/A   Overcast
11:35 AM 24.8 °F 13.4 °F 24.8 °F 100% 29.57 in 3.0 mi West 12.7 mph 16.1 mph N/A   Overcast
11:55 AM 26.6 °F 16.8 °F 24.8 °F 93% 29.57 in 5.0 mi West 10.4 mph - N/A   Overcast
12:15 PM 26.6 °F 16.2 °F 26.6 °F 100% 29.57 in 5.0 mi West 11.5 mph 16.1 mph N/A   Overcast
12:35 PM 26.6 °F 16.2 °F 26.6 °F 100% 29.59 in 7.0 mi WNW 11.5 mph - N/A   Overcast
12:55 PM 26.6 °F 18.2 °F 26.6 °F 100% 29.59 in 10.0 mi WNW 8.1 mph 11.5 mph N/A   Overcast
1:15 PM 26.6 °F 16.8 °F 24.8 °F 93% 29.60 in 10.0 mi WNW 10.4 mph - N/A   Overcast
1:35 PM 26.6 °F 16.2 °F 23.0 °F 86% 29.60 in 10.0 mi WNW 11.5 mph 17.3 mph N/A   Overcast
1:55 PM 26.6 °F 16.2 °F 21.2 °F 80% 29.62 in 10.0 mi WNW 11.5 mph 17.3 mph N/A   Overcast
2:15 PM 26.6 °F 15.2 °F 21.2 °F 80% 29.63 in 10.0 mi NW 13.8 mph 20.7 mph N/A   Overcast
2:35 PM 26.6 °F 14.7 °F 21.2 °F 80% 29.65 in 10.0 mi NW 15.0 mph 19.6 mph N/A   Overcast
2:55 PM 26.6 °F 14.7 °F 19.4 °F 74% 29.66 in 10.0 mi NW 15.0 mph 19.6 mph N/A   Overcast
3:15 PM 26.6 °F 15.7 °F 17.6 °F 69% 29.67 in 10.0 mi WNW 12.7 mph 18.4 mph N/A   Overcast
3:55 PM 26.6 °F 13.8 °F 14.0 °F 59% 29.71 in 10.0 mi NNW 17.3 mph 25.3 mph N/A   Mostly Cloudy
4:15 PM 26.6 °F 13.8 °F 14.0 °F 59% 29.73 in 10.0 mi NW 17.3 mph 21.9 mph N/A   Overcast
4:35 PM 24.8 °F 11.1 °F 14.0 °F 64% 29.74 in 10.0 mi NNW 18.4 mph 24.2 mph N/A Snow Light Snow
4:55 PM 23.0 °F 10.6 °F 14.0 °F 68% 29.76 in 10.0 mi NNW 13.8 mph 21.9 mph N/A Snow Light Snow
5:15 PM 23.0 °F 10.1 °F 14.0 °F 68% 29.78 in 10.0 mi NNW 15.0 mph 23.0 mph N/A   Mostly Cloudy
5:35 PM 21.2 °F 5.6 °F 10.4 °F 63% 29.80 in 10.0 mi NNW 20.7 mph 25.3 mph N/A   Scattered Clouds
5:55 PM 21.2 °F 8.3 °F 10.4 °F 63% 29.82 in 10.0 mi NW 13.8 mph 18.4 mph N/A   Mostly Cloudy
6:15 PM 21.2 °F 9.5 °F 10.4 °F 63% 29.83 in 10.0 mi NW 11.5 mph 16.1 mph N/A   Overcast
6:35 PM 21.2 °F 8.9 °F 8.6 °F 58% 29.84 in 10.0 mi NW 12.7 mph 19.6 mph N/A   Mostly Cloudy
6:55 PM 21.2 °F 7.8 °F 8.6 °F 58% 29.86 in 10.0 mi NW 15.0 mph 21.9 mph N/A   Mostly Cloudy
7:15 PM 21.2 °F 8.9 °F 8.6 °F 58% 29.88 in 10.0 mi NW 12.7 mph 21.9 mph N/A   Overcast
7:55 PM 19.4 °F 8.6 °F 8.6 °F 63% 29.89 in 10.0 mi NW 9.2 mph 12.7 mph N/A   Overcast
8:15 PM 19.4 °F 5.0 °F 10.4 °F 68% 29.91 in 10.0 mi NNW 16.1 mph 20.7 mph N/A   Overcast
8:35 PM 17.6 °F 5.7 °F 12.2 °F 79% 29.91 in 2.5 mi NNW 10.4 mph - N/A Snow Light Snow
8:55 PM 17.6 °F 5.7 °F 10.4 °F 73% 29.93 in 5.0 mi NNW 10.4 mph 17.3 mph N/A Snow Light Snow
9:15 PM 17.6 °F 4.3 °F 10.4 °F 73% 29.94 in 5.0 mi NNW 12.7 mph - N/A Snow Light Snow
9:55 PM 15.8 °F 3.4 °F 10.4 °F 79% 29.96 in 4.0 mi NW 10.4 mph - N/A Snow Light Snow
10:15 PM 15.8 °F 1.4 °F 5.0 °F 62% 29.97 in 10.0 mi NNW 13.8 mph 18.4 mph N/A   Overcast
10:35 PM 14.0 °F 0.5 °F 3.2 °F 62% 29.96 in 10.0 mi North 11.5 mph 19.6 mph N/A   Overcast
10:55 PM 14.0 °F 1.2 °F 3.2 °F 62% 29.97 in 10.0 mi North 10.4 mph 17.3 mph N/A   Overcast
11:15 PM 12.2 °F -1.0 °F 1.4 °F 62% 29.97 in 10.0 mi NNW 10.4 mph - N/A   Overcast
11:35 PM 12.2 °F -1.8 °F 1.4 °F 62% 30.01 in 10.0 mi NNW 11.5 mph - N/A   Mostly Cloudy
11:55 PM 10.4 °F -0.4 °F -0.4 °F 62% 30.01 in 10.0 mi NNW 6.9 mph - N/A   Scattered Clouds